CW9849 Weather Reports


Display with metric or nautical units.
time (UTC)temp
F
wind
direction
speed
MPH
gust
MPH
rain 1hr
in
rain 24hr
in
rain mn
in
humidity
%
barometer
mb
20260903053007 64 233 14.0 17.0 0.01 0.06 0.02 95 1019.8
20260903051507 64 245 14.0 19.0 0.00 0.05 0.02 95 1019.8
20260903050012 64 233 14.0 19.0 0.00 0.05 0.02 95 1019.8
20260903044516 64 227 15.0 19.0 0.00 0.05 0.02 95 1019.8
20260903043003 64 231 14.0 20.0 0.00 0.05 0.02 95 1019.7
20260903041503 64 227 15.0 19.0 0.02 0.05 0.02 95 1019.8
20260903040124 64 231 15.0 19.0 0.02 0.05 0.02 95 1019.7
20260903033159 64 224 12.0 16.0 0.02 0.05 0.02 95 1019.8
20260903031559 64 233 13.0 18.0 0.00 0.03 0.00 95 1019.7
20260903030056 64 233 14.0 18.0 0.00 0.03 0.00 95 1019.8
20260903024555 64 233 14.0 20.0 0.00 0.03 0.00 95 1019.8
20260903023055 64 222 14.0 19.0 0.00 0.03 0.00 95 1019.8
20260903021557 64 233 13.0 21.0 0.00 0.03 0.00 95 1020.0
20260903020053 64 248 15.0 22.0 0.00 0.03 0.00 95 1019.9
20260903014553 64 236 14.0 20.0 0.00 0.03 0.00 95 1019.9
20260903013049 64 231 15.0 20.0 0.00 0.03 0.00 95 1019.9
20260903011551 64 226 15.0 21.0 0.00 0.03 0.00 95 1020.0
20260903010047 64 217 14.0 20.0 0.00 0.03 0.00 95 1019.9
20260903004546 64 229 16.0 19.0 0.00 0.03 0.00 95 1020.0
20260903003044 64 238 14.0 19.0 0.00 0.03 0.00 94 1020.0
20260903001558 64 226 15.0 20.0 0.00 0.03 0.00 94 1020.1
20260903000042 64 236 15.0 19.0 0.00 0.03 0.00 94 1020.0
20260902234544 64 238 14.0 20.0 0.00 0.03 0.00 94 1020.0
20260902233038 64 236 15.0 19.0 0.00 0.03 0.00 94 1020.1
20260902231536 64 224 15.0 22.0 0.00 0.03 0.00 94 1020.4
20260902230034 64 248 16.0 22.0 0.00 0.03 0.00 94 1020.4
20260902224537 64 226 17.0 23.0 0.00 0.03 0.03 94 1020.5
20260902223033 64 231 18.0 25.0 0.00 0.03 0.03 94 1020.3
20260902221537 64 233 19.0 25.0 0.00 0.03 0.03 94 1020.3
20260902220032 64 236 16.0 22.0 0.00 0.03 0.03 94 1019.9
20260902214529 64 233 15.0 25.0 0.00 0.03 0.03 94 1020.1
20260902213025 64 241 16.0 22.0 0.00 0.03 0.03 93 1019.8
20260902211526 64 226 15.0 23.0 0.00 0.03 0.03 93 1020.4
20260902210024 64 233 17.0 23.0 0.00 0.03 0.03 93 1020.3
20260902204523 64 231 15.0 26.0 0.00 0.03 0.03 93 1020.3
20260902203022 64 252 18.0 27.0 0.00 0.03 0.03 93 1020.2
20260902201521 64 234 20.0 24.0 0.00 0.03 0.03 93 1019.9
20260902200020 64 231 17.0 22.0 0.00 0.03 0.03 93 1020.0
20260902194521 64 227 19.0 25.0 0.00 0.03 0.03 92 1019.8
20260902193020 64 245 18.0 24.0 0.00 0.03 0.03 92 1019.9
20260902191619 64 240 17.0 29.0 0.00 0.03 0.03 91 1019.6
20260902190028 64 224 16.0 24.0 0.00 0.03 0.03 90 1019.5
20260902184517 65 226 17.0 23.0 0.00 0.04 0.03 89 1019.4
20260902183016 64 243 17.0 22.0 0.00 0.04 0.03 89 1019.3
20260902181515 65 229 18.0 24.0 0.00 0.04 0.03 89 1019.2
20260902180025 65 234 18.0 24.0 0.00 0.04 0.03 88 1019.5
20260902174516 65 226 17.0 23.0 0.00 0.04 0.03 89 1019.4
20260902173012 65 236 16.0 22.0 0.00 0.04 0.03 88 1019.4
20260902171511 66 234 17.0 23.0 0.00 0.04 0.03 88 1019.4
20260902170011 66 231 16.0 25.0 0.00 0.04 0.03 85 1019.3
20260902164510 67 234 14.0 21.0 0.00 0.04 0.03 86 1019.2
20260902163009 68 226 16.0 23.0 0.00 0.04 0.03 86 1019.3
20260902161519 68 231 17.0 25.0 0.00 0.04 0.03 85 1019.5
20260902160009 67 233 20.0 25.0 0.00 0.04 0.03 86 1019.3
20260902154510 68 229 16.0 23.0 0.00 0.04 0.03 86 1019.4
20260902153006 69 229 18.0 26.0 0.00 0.04 0.03 83 1019.4
20260902151505 69 226 14.0 22.0 0.00 0.04 0.03 86 1019.3
20260902150006 69 220 14.0 25.0 0.00 0.04 0.03 83 1019.2
20260902144503 69 229 22.0 27.0 0.00 0.04 0.03 83 1019.1
20260902143003 69 229 18.0 24.0 0.00 0.04 0.03 85 1019.0
20260902141502 68 234 19.0 25.0 0.00 0.04 0.03 86 1019.0
20260902134618 69 236 20.0 28.0 0.00 0.04 0.03 85 1019.0
20260902133059 67 210 19.0 25.0 0.00 0.04 0.03 88 1019.0
20260902131559 69 195 16.0 25.0 0.00 0.04 0.03 84 1018.9
20260902130056 69 236 19.0 25.0 0.00 0.04 0.03 85 1018.8
20260902124555 69 229 19.0 27.0 0.00 0.04 0.03 85 1018.9
20260902123059 68 227 17.0 26.0 0.00 0.04 0.03 86 1018.8
20260902121553 69 226 17.0 23.0 0.00 0.04 0.03 84 1018.9
20260902120055 69 229 16.0 28.0 0.00 0.04 0.03 84 1018.8
20260902114549 68 229 17.0 26.0 0.00 0.04 0.03 86 1018.9
20260902113046 69 227 21.0 26.0 0.00 0.04 0.03 86 1018.9
20260902111546 68 243 18.0 25.0 0.01 0.04 0.03 89 1018.9
20260902110042 67 224 21.0 28.0 0.01 0.04 0.03 89 1018.8
20260902104542 66 236 18.0 28.0 0.01 0.04 0.03 92 1018.8
20260902103039 66 241 19.0 26.0 0.02 0.04 0.03 91 1018.7
20260902101535 66 233 17.0 25.0 0.01 0.03 0.02 93 1018.6
20260902100035 66 234 15.0 23.0 0.01 0.03 0.02 93 1018.6
20260902094531 65 219 17.0 25.0 0.01 0.03 0.02 93 1018.4
20260902093027 65 222 16.0 23.0 0.00 0.02 0.02 93 1018.4
20260902091527 66 206 17.0 28.0 0.00 0.02 0.02 93 1018.4
20260902090023 65 219 16.0 25.0 0.00 0.02 0.02 93 1018.2
20260902084529 64 203 18.0 27.0 0.00 0.02 0.02 93 1018.2
20260902083021 64 201 17.0 28.0 0.00 0.02 0.02 93 1018.0
20260902081521 64 217 18.0 29.0 0.00 0.02 0.02 93 1018.0
20260902080018 64 199 19.0 29.0 0.00 0.02 0.02 93 1017.9
20260902074517 64 192 19.0 26.0 0.01 0.02 0.02 93 1017.9
20260902073016 64 217 18.0 26.0 0.02 0.02 0.02 93 1017.9
20260902071515 63 222 18.0 29.0 0.02 0.02 0.02 92 1018.0
20260902070010 63 219 17.0 27.0 0.02 0.02 0.02 92 1017.8
20260902064521 63 202 18.0 25.0 0.00 0.01 0.00 91 1017.9
20260902063008 63 201 18.0 25.0 0.00 0.01 0.00 91 1017.8
20260902061505 63 181 17.0 25.0 0.00 0.01 0.00 90 1017.9
20260902060005 63 190 17.0 25.0 0.00 0.01 0.00 89 1017.8
20260902054506 63 197 20.0 27.0 0.00 0.01 0.00 89 1018.0